Location: Newark
(49.5647°N, 8.2922°E)
Time: 06:22:34
(UTC+00:00)

Transit 2A - Pass Details

Date: 25 February 2020
Orbit: 597 x 962 km, 66.7° (Epoch: 07 April)

Event Time Altitude Azimuth Distance (km) Brightness Sun altitude
Rises 10:32:49 0° 158° (SSE) 2,827 10.2 29.4°
Reaches altitude 10° 10:36:34 10° 123° (ESE) 1,933 9.0 29.6°
Maximum altitude 10:37:55 11° 105° (ESE) 1,855 8.6 29.7°
Drops below altitude 10° 10:39:17 10° 87° (E) 1,953 8.4 29.7°
Sets 10:43:08 0° 53° (NE) 2,909 8.8 29.9°
